Location: Tierra del Sol
(32.6128°N, 116.3319°W)
Time: 08:03:03
(UTC-07:00)

Envisat - Pass Details

Date: 26 June 2018
Orbit: 764 x 766 km, 98.2° (Epoch: 23 September)

Event Time Altitude Azimuth Distance (km) Brightness Sun altitude
Rises 21:14:35 0° 207° (SSW) 3,214 6.1 -14.3°
Reaches altitude 10° 21:17:44 10° 228° (SW) 2,293 5.6 -14.8°
Maximum altitude 21:20:50 16° 266° (W) 1,894 5.6 -15.3°
Drops below altitude 10° 21:23:58 10° 305° (NW) 2,302 6.8 -15.8°
Sets 21:27:10 0° 326° (NW) 3,233 7.8 -16.3°
